Probability
0 0 0 0 0 0 0 0 0 0 0 0 0 0 0 0 0 0 0 0 0 0 0 0 0 0 0 0 0 0 0 0 0 0 0 0 0 0 0 0 0 0 0 0 0 0 0 0 0
0 0 0 0 0 0 0 0 0 0 0 0 0 0 0 0 0 0 0 0 0 0 0 0 0 0 0 0 0 0 0 0 0 0 0 0 0 0 0 0 0 0 0 0 0 0 0 0 0
0 0 0 0 0 0 0 0 0 0 0 0 0 0 0 0 0 0 0 0 0 0 0 0 0 0 0 0 0 0 0 0 0 0 0 0 0 0 0 0 0 0 0 0 0 0 0 0 0
0 0 0 0 0 0 0 0 0 0 0 0 0 0 0 0 0 0 0 0 0 0 0 0 0 0 0 0 0 0 0 0 0 0 0 0 0 0 0 0 0 0 0 0 0 0 0 0 0
0 0 0 0 0 0 0 0 0 0 0 0 0 0 0 0 0 0 0 0 0 0 0 0 0 0 0 0 0 0 0 0 0 0 0 0 0 0 0 0 0 0 0 0 0 0 0 0 0
0 0 0 0 0 0 0 0 0 0 0 0 0 0 0 0 0 0 0 0 0 0 0 0 0 0 0 0 0 0 0 0 0 0 0 0 0 0 0 0 0 0 0 0 0 0 0 0 0
0 0 0 0 0 0 0 0 0 0 0 0 0 0 0 0 0 0 0 0 0 0 0 0 0 0 0 0 0 0 0 0 0 0 0 0 0 0 0 0 0 0 0 0 0 0 0 0 0
0 0 0 0 0 0 0 0 0 0 0 0 0 0 0 0 0 0 0 0 0 0 0 0 0 0 0 0 0 0 0 0 0 0 0 0 0 0 0 0 0 0 0 0 0 0 0 0 0
0 0 0 0 0 0 0 0 0 0 0 0 0 0 0 0 0 0 0 0 0 0 0 0 0 0 0 0 0 0 0 0 0 0 0 0 0 0 0 0 0 0 0 0 0 0 0 0 0
0 0 0 0 0 0 0 0 0 0 0 0 0 0 0 0 0 0 0 0 0 0 0 0 0 0 0 0 0 0 0 0 0 0 0 0 0 0 0 0 0 0 0 0 0 0 0 0 0
0 0 0 0 0 0 0 0 0 0 0 0 0 0 0 0 0 0 0 0 0 0 0 0 0 0 0 0 0 0 0 0 0 0 0 0 0 0 0 0 0 0 0 0 0 0 0 0 0
0 0 0 0 0 0 0 0 0 0 0 0 0 0 0 0 0 0 0 0 0 0 0 0 0 0 0 0 0 0 0 0 0 0 0 0 0 0 0 0 0 0 0 0 0 0 0 0 0
0 0 0 0 0 0 0 0 0 0 0 0 0 0 0 0 0 0 0 0 0 0 0 0 0 0 0 0 0 0 0 0 0 0 0 0 0 0 0 0 0 0 0 0 0 0 0 0 0
0 0 0 0 0 0 0 0 0 0 0 0 0 0 0 0 0 0 0 0 0 0 0 0 0 0 0 0 0 0 0 0 0 0 0 0 0 0 0 0 0 0 0 0 0 0 0 0 0
0 0 0 0 0 0 0 0 0 0 0 0 0 0 0 0 0 0 0 0 0 0 0 0 0 0 1 1 0 0 0 0 0 0 0 0 0 0 0 0 0 0 0 0 0 0 0 0 0
0 0 0 0 0 0 0 0 0 0 0 0 0 0 0 0 0 0 0 0 0 0 0 0 0 1 2 2 1 0 0 0 0 0 0 0 0 0 0 0 0 0 0 0 0 0 0 0 0
0 0 0 0 0 0 0 0 0 0 0 0 0 0 0 0 0 0 0 0 0 0 0 0 0 1 2 3 2 1 0 0 0 0 0 0 0 0 0 0 0 0 0 0 0 0 0 0 0
0 0 0 0 0 0 0 0 0 0 0 0 0 0 0 0 0 0 0 0 0 0 0 1 1 0 1 2 2 1 0 0 0 0 0 0 0 0 0 0 0 0 0 0 0 0 0 0 0
0 0 0 0 0 0 0 0 0 0 0 0 0 0 0 0 0 0 0 0 0 0 0 1 1 1 0 1 1 0 0 0 0 0 0 0 0 0 0 0 0 0 0 0 0 0 0 0 0
0 0 0 0 0 0 0 0 0 0 0 0 0 0 0 0 0 0 0 0 0 0 0 0 1 2 1 1 0 0 1 1 1 2 1 0 0 0 0 0 0 0 0 0 0 0 0 0 0
0 0 0 0 0 0 0 0 0 0 0 0 0 0 0 0 0 0 0 0 0 0 1 1 1 2 2 2 1 1 1 2 2 2 2 1 1 0 0 0 0 0 0 0 0 0 0 0 0
0 0 0 0 0 0 0 0 0 0 0 0 0 0 0 0 0 0 0 0 0 0 1 1 1 2 3 3 2 1 1 1 1 2 3 3 2 1 1 0 0 0 0 0 0 0 0 0 0
0 0 0 0 0 0 0 0 0 0 0 0 0 0 0 0 0 0 0 0 0 0 1 1 2 3 4 5 4 3 2 1 1 2 3 3 3 3 2 1 1 0 0 0 0 0 0 0 0
0 0 0 0 0 0 0 0 0 0 0 0 0 0 0 0 0 0 0 0 0 0 0 0 1 3 5 5 5 4 3 3 3 4 4 3 3 3 3 3 2 1 0 0 0 0 0 0 0
0 0 0 0 0 0 0 0 0 0 0 0 0 0 0 0 0 0 0 0 0 0 0 0 0 1 3 4 5 5 4 4 4 5 5 4 3 3 3 3 3 2 1 0 0 0 0 0 0
0 0 0 0 0 0 0 0 0 0 0 0 0 0 0 0 0 0 0 0 0 0 0 0 0 0 1 2 3 4 4 4 4 4 5 5 4 3 3 3 3 3 2 1 0 0 0 0 0
0 0 0 0 0 0 0 0 0 0 0 0 0 0 0 0 0 0 0 0 0 0 0 0 0 0 0 0 1 1 2 2 3 2 3 4 3 3 3 3 3 3 3 2 1 0 0 0 0
0 0 0 0 0 0 0 0 0 0 0 0 0 0 0 0 0 0 0 0 0 0 0 0 0 0 0 0 0 0 0 1 2 1 1 3 3 3 3 3 3 3 3 3 2 1 0 0 0
0 0 0 0 0 0 0 0 0 0 0 0 0 0 0 0 0 0 0 0 0 0 0 0 0 0 0 0 0 0 0 1 2 2 2 3 4 3 3 3 3 3 3 3 3 2 1 0 0
0 0 0 0 0 0 0 0 0 0 0 0 0 0 0 0 0 0 0 0 0 0 0 0 0 0 1 1 1 0 1 2 3 3 3 3 4 4 3 3 3 3 3 3 3 3 2 1 0
Wind_Speed
12 5 2 4 6 4 2 3 2 2 1 1 3 5 7 6 6 3 1 8 10 11 10 12 13 15 15 14 14 13 13 13 13 13 12 12 12 12 12 12 12 12 12 12 13 13 13 12 12
6 2 4 5 5 1 4 3 3 4 3 3 3 3 3 2 1 4 4 6 11 12 10 10 13 14 15 14 14 13 13 13 12 12 12 12 12 12 12 11 11 11 11 11 11 11 11 11 11
5 3 4 5 3 5 4 3 4 1 3 2 2 1 2 3 3 5 5 10 11 10 9 10 13 14 15 14 14 13 12 12 12 12 11 12 11 11 11 11 10 10 10 10 10 10 10 10 10
3 4 5 4 4 6 5 3 2 3 1 1 4 2 0 1 4 5 9 12 11 9 8 10 13 14 15 14 13 13 12 12 12 11 11 11 11 11 11 10 10 9 9 9 9 9 8 8 8
4 4 3 0 5 4 4 3 3 3 3 2 3 4 1 2 3 8 12 11 12 9 7 9 12 13 13 13 13 13 12 12 12 11 10 10 10 11 10 10 9 8 8 8 8 8 7 7 6
4 4 2 3 5 5 3 2 3 3 2 2 4 4 1 1 6 9 11 10 10 10 8 8 11 11 11 11 12 11 11 11 11 11 10 10 10 10 9 9 8 8 7 7 7 6 6 5 5
3 3 4 4 4 5 2 1 3 3 3 4 5 5 1 2 5 8 9 8 8 8 8 6 7 8 10 10 10 10 10 10 10 10 9 9 8 8 8 7 7 7 6 6 5 5 4 4 3
3 3 3 4 5 5 2 0 1 3 3 1 4 6 5 4 7 8 8 7 7 7 7 7 6 6 6 6 9 9 9 9 9 9 8 8 7 7 7 6 6 6 6 6 5 4 3 3 2
2 3 6 7 6 5 1 0 1 0 3 1 1 2 2 9 11 10 7 7 8 8 7 7 7 6 6 5 7 7 8 8 8 7 8 7 4 4 4 5 5 6 5 5 5 5 3 2 1
3 5 9 5 5 3 2 2 1 1 1 1 1 2 4 11 13 12 11 12 12 12 10 8 8 7 6 5 5 4 4 5 5 4 5 4 3 3 3 5 6 5 5 5 5 5 3 2 0
3 6 4 3 3 2 2 2 2 4 4 5 5 5 8 10 12 12 12 11 11 10 10 10 9 8 7 5 4 3 3 3 4 5 5 4 3 2 2 2 2 3 3 2 2 2 1 2 2
3 4 3 3 2 2 3 2 2 5 7 4 5 7 11 13 13 14 13 11 9 9 10 10 9 8 8 6 5 5 4 4 4 5 6 4 3 3 3 2 3 2 2 2 2 2 2 3 3
4 3 3 4 4 4 3 4 4 6 5 2 3 8 11 13 12 10 8 8 9 10 11 11 10 10 9 7 5 6 5 5 5 4 5 6 5 4 4 3 3 3 3 3 3 3 3 4 4
3 3 5 5 4 3 4 6 4 6 2 1 4 8 10 11 11 8 7 9 10 11 11 10 11 11 9 8 7 6 6 5 5 5 6 7 5 5 5 4 4 4 3 4 4 4 4 4 3
1 2 5 5 4 3 1 7 8 6 2 3 5 6 8 8 7 10 10 10 11 10 10 10 10 10 10 10 9 6 6 6 6 6 7 7 7 6 5 5 5 4 4 4 4 4 3 3 3
1 2 5 4 4 3 5 12 7 3 4 6 6 6 7 8 8 9 8 8 8 8 9 9 8 10 11 10 8 6 6 6 6 6 6 8 8 7 6 5 5 5 4 4 4 4 3 4 4
3 5 7 4 4 3 6 9 4 2 4 6 6 7 7 7 8 8 7 7 7 8 8 9 9 10 11 10 7 7 6 7 6 6 6 7 8 8 7 6 5 5 4 5 5 4 4 4 4
6 5 5 6 3 3 6 9 6 3 3 6 6 6 7 8 11 8 6 6 5 5 6 8 9 9 8 7 5 5 6 6 6 6 7 8 7 8 7 6 6 6 5 5 5 5 5 4 4
3 4 5 4 3 3 8 10 9 6 5 6 7 7 7 9 8 5 4 4 4 5 6 7 8 8 7 6 7 7 8 7 6 7 7 8 8 9 8 6 6 6 6 7 7 5 5 5 3
5 6 5 3 2 3 5 10 8 8 8 8 9 8 8 7 6 5 3 3 5 6 7 7 8 8 8 8 6 5 5 5 5 5 6 8 9 9 8 8 7 7 6 7 7 6 4 3 3
7 7 5 3 3 2 3 8 7 7 7 7 7 8 7 8 8 6 4 4 4 6 7 7 8 8 9 8 4 3 3 3 4 5 6 7 7 7 8 8 7 6 7 6 7 7 7 5 4
8 4 4 4 3 4 2 7 6 6 6 7 8 6 7 7 6 5 4 4 4 6 5 6 6 6 7 7 7 8 8 8 8 6 5 5 6 7 7 7 7 7 6 7 7 7 6 6 5
4 1 3 4 4 5 4 6 7 3 7 8 7 5 4 4 4 4 4 4 4 4 3 4 4 5 5 6 8 9 8 8 5 4 4 5 5 6 7 7 7 7 6 7 7 6 7 6 6
2 1 2 1 2 8 8 7 8 5 7 4 4 3 3 2 2 2 3 2 2 3 2 2 3 4 3 5 6 8 9 8 6 5 5 5 4 4 5 6 6 6 6 6 6 6 7 7 7
2 3 1 2 4 8 4 7 9 5 4 3 2 2 2 1 1 2 3 3 3 3 3 2 2 3 3 3 5 6 8 8 8 7 6 5 4 4 5 5 5 5 6 6 5 6 6 7 7
5 5 5 5 4 4 3 8 7 3 2 0 1 1 3 3 3 3 3 2 2 3 3 2 2 2 2 2 3 4 5 5 5 6 5 5 4 5 4 5 5 5 5 5 5 5 5 5 6
3 4 3 1 1 3 5 6 7 2 2 2 2 4 4 4 4 4 4 3 3 3 3 3 2 3 3 2 1 1 2 3 4 4 4 4 3 3 4 4 4 4 4 4 4 4 4 4 4
3 3 2 3 4 5 5 5 5 2 2 2 2 2 3 4 4 4 4 4 4 4 4 4 3 3 2 2 2 1 1 1 2 2 2 3 4 3 3 4 4 4 4 4 4 3 3 4 4
2 2 3 2 3 4 4 6 4 4 2 2 3 3 3 3 3 3 3 3 3 4 4 5 4 4 4 4 3 2 2 2 1 1 1 2 2 2 3 4 4 4 3 3 4 4 3 4 4
2 3 3 3 4 4 4 7 2 1 2 2 4 4 3 2 2 3 3 3 4 4 4 4 4 4 4 4 3 3 2 2 2 2 1 1 1 1 2 2 3 3 3 3 4 4 4 4 4
Wind_Direction
331 336 68 58 54 52 240 244 211 191 207 168 143 151 160 166 172 202 127 139 136 144 153 154 154 152 150 149 146 144 143 141 137 135 132 129 125 122 118 115 112 109 106 104 102 100 99 97 93
323 341 50 60 88 121 262 241 216 207 176 126 89 104 123 188 169 130 137 151 143 146 149 152 152 152 152 152 152 150 148 144 141 138 137 135 132 129 125 122 118 115 112 110 107 104 103 102 97
337 36 75 77 130 190 228 226 208 202 153 131 101 85 157 189 171 168 166 148 141 144 146 151 152 154 154 155 156 155 152 148 145 142 140 140 138 134 130 127 125 121 119 117 114 109 105 104 100
25 36 56 85 217 222 223 235 175 130 137 111 127 111 297 274 176 169 143 144 141 143 145 152 154 157 157 158 159 158 155 152 150 148 144 141 141 137 133 131 129 127 126 125 121 116 110 106 101
49 68 63 309 249 253 248 243 173 167 180 160 136 142 205 350 115 132 141 147 149 146 147 156 157 160 160 162 162 161 159 157 156 153 149 146 144 140 138 136 134 132 132 132 129 126 119 111 104
46 68 113 233 256 274 267 220 160 167 176 156 141 143 199 66 132 145 146 149 152 151 149 156 160 161 163 165 165 165 164 162 159 158 155 152 150 149 147 145 144 142 142 142 137 133 127 121 114
112 121 192 217 250 272 265 182 170 168 188 200 165 140 234 171 160 146 142 140 144 149 150 154 159 163 166 167 166 167 165 163 161 162 159 156 154 154 152 154 156 156 155 153 151 148 143 138 129
133 130 190 210 220 249 283 286 191 172 205 165 147 153 205 198 150 134 130 138 147 153 158 159 159 161 163 167 170 170 169 167 166 164 161 160 159 158 157 160 168 172 172 171 170 167 167 167 156
100 137 213 209 203 240 278 293 327 316 125 143 213 204 214 139 138 139 144 158 168 173 173 170 167 166 165 167 173 173 173 173 170 168 167 162 158 159 162 174 181 185 185 187 189 191 191 185 192
132 201 224 210 200 217 239 219 216 93 126 220 294 4 115 142 155 164 173 179 184 186 185 182 179 174 171 174 167 170 172 173 171 167 168 163 161 168 172 185 194 195 196 202 206 207 203 198 224
181 215 235 237 231 224 229 246 197 152 220 223 215 186 153 162 171 180 185 188 191 190 188 189 188 182 178 176 170 173 171 172 176 175 173 167 164 169 177 178 194 200 203 207 219 223 211 208 220
217 250 254 257 259 242 229 230 225 199 223 241 223 171 168 175 185 190 192 192 188 191 196 193 190 189 188 181 180 180 182 183 186 184 177 170 175 184 187 193 196 195 195 199 208 216 227 233 238
227 260 279 279 275 257 256 247 243 245 259 283 154 160 181 188 195 199 198 193 190 197 201 197 193 194 192 188 190 191 193 193 191 186 185 181 185 192 193 199 201 203 199 202 210 221 232 240 246
231 258 282 286 271 253 245 263 242 252 259 190 168 183 196 200 198 193 196 199 201 203 204 201 198 197 193 195 196 196 194 194 193 196 196 191 194 195 195 201 204 208 207 208 210 219 228 239 243
263 283 289 263 242 241 217 264 237 246 222 214 211 207 208 216 210 209 206 206 206 205 202 203 204 198 197 200 199 198 196 194 200 204 200 198 198 198 200 205 210 213 208 208 213 224 229 242 246
192 211 250 250 208 213 184 249 251 228 206 228 228 227 226 226 223 225 220 216 211 205 202 202 204 201 201 202 200 200 198 198 205 204 202 204 203 201 201 208 215 210 202 203 210 217 226 239 245
194 220 234 256 212 195 203 247 258 224 204 235 238 234 235 240 242 236 228 221 215 209 204 201 203 204 205 203 200 201 199 203 206 204 205 206 206 203 205 212 213 203 205 209 215 218 218 236 246
206 214 223 223 226 196 229 252 278 285 232 241 247 245 242 241 243 239 229 223 218 215 210 206 204 207 201 198 197 201 207 211 209 209 210 206 206 204 206 213 211 201 207 214 214 222 221 230 240
216 219 241 251 250 208 236 254 264 270 264 260 258 250 249 250 253 255 240 227 219 216 213 213 206 206 193 194 200 204 213 213 212 213 210 206 206 205 206 212 209 206 212 218 216 217 227 235 215
232 240 246 281 297 240 253 263 259 247 242 237 241 244 242 251 269 264 255 243 225 223 219 219 217 209 203 205 203 204 202 207 211 209 209 209 207 205 206 211 212 208 214 219 217 213 221 223 192
238 230 231 257 319 299 297 283 254 248 242 247 241 238 240 236 246 256 253 245 239 233 228 224 223 218 211 206 190 184 189 198 204 210 213 213 210 208 208 210 211 209 210 219 219 215 219 228 215
245 230 227 239 250 264 213 273 265 244 252 249 247 241 241 246 247 252 253 255 248 245 239 234 230 226 217 201 197 198 205 215 217 213 212 208 206 210 212 213 213 213 213 219 219 214 217 221 230
238 245 228 234 231 254 228 250 276 247 244 248 249 248 248 245 246 256 258 255 260 257 247 240 238 233 221 206 205 207 215 221 218 198 201 207 209 212 214 214 213 215 218 222 220 215 216 219 226
214 324 307 243 217 246 221 223 270 228 227 249 255 258 262 267 264 283 311 330 322 316 299 257 237 238 222 210 208 208 214 217 208 203 207 211 212 215 218 216 215 217 220 223 223 220 219 223 224
184 154 197 226 220 244 210 218 252 248 243 232 258 275 291 324 340 347 350 354 348 339 329 307 265 256 241 217 217 218 220 218 216 212 210 210 214 217 220 215 220 223 227 226 222 220 222 223 223
206 184 187 206 221 259 218 232 254 269 277 342 11 360 4 358 358 355 345 351 344 347 355 358 346 307 298 250 235 233 228 222 224 220 213 211 216 219 215 211 217 223 226 226 222 221 224 222 224
177 211 203 190 303 270 253 272 293 311 9 23 25 19 358 345 348 350 353 359 4 7 6 10 14 7 4 351 304 263 254 237 228 220 213 213 215 214 208 206 213 220 221 222 218 221 222 220 225
175 160 147 175 195 244 267 255 245 277 297 339 359 346 321 328 349 355 359 4 6 6 9 18 24 16 4 7 351 354 345 306 254 227 224 224 223 214 207 210 212 213 217 218 217 221 223 215 222
166 179 189 189 191 198 253 262 230 214 223 270 288 293 304 324 337 342 346 353 3 10 15 16 13 9 6 2 357 4 356 342 340 316 249 244 246 226 217 217 209 208 213 215 212 218 213 213 218
200 195 185 203 237 219 241 267 318 207 282 302 306 315 331 330 335 338 339 354 4 6 8 9 8 7 359 357 360 2 4 9 359 335 320 329 306 279 237 220 212 208 209 208 207 217 214 216 220